Tracking 25693 objects as of 1-Jul-2022
HD Live streaming from Space Station
objects crossing your sky now

SSU 1

Track SSU 1 now!
10-day predictions
SSU 1 is classified as:


NORAD ID: 8835
Int'l Code: 1976-038C
Perigee: 571.6 km
Apogee: 1,361.6 km
Inclination: 63.3 °
Period: 104.3 minutes
Semi major axis: 7337 km
RCS: Unknown
Launch date: April 30, 1976
Source: United States (US)
Launch site: AIR FORCE WESTERN TEST RANGE (AFWTR)
aabbcc
Your satellite tracking list
Your tracking list is empty




NASA's NSSDC Master Catalog

Two Line Element Set (TLE):
1 08835U 76038C   22182.56037530  .00000175  00000-0  93715-4 0  9994
2 08835  63.3430 283.7178 0538321 161.2526 200.9220 13.81243026158858
Source of the keplerian elements: McCants